Wind_Speed
19 18 16 16 18 19 17 17 16 16 15 14 14 14 13 12 11 10 9 9 10 12 13 14 15 16 17 18 17 16 15 15 15 15 16 18 20 19 18 17 17 16 16 16 14 13 12 10 9 10 11 9 7 7 6 6 7 8 10 14 15 15 15 17 18 18 18 18 17 17 18 18 18 18 18 17 16 17 17 17 16 17 18 17 17
21 20 17 17 19 18 18 17 17 16 15 15 15 14 14 13 12 10 10 10 11 12 13 14 15 16 17 17 17 16 15 16 16 16 16 17 18 17 17 16 17 17 17 15 14 13 11 10 9 9 11 9 8 7 6 6 6 7 10 14 15 14 14 17 18 17 18 17 17 17 17 17 17 17 16 16 15 15 15 15 15 15 16 15 15
21 21 18 18 20 18 18 18 17 16 16 16 15 15 14 14 12 11 10 10 12 13 14 15 15 16 16 16 16 16 16 16 16 16 17 17 17 17 16 16 15 16 16 14 13 12 10 9 8 8 10 9 8 8 7 6 6 8 10 13 14 14 15 16 17 17 17 16 16 16 17 17 16 16 15 14 13 13 13 13 13 14 14 14 14
20 21 19 18 20 19 18 18 17 16 16 16 16 16 15 14 12 11 11 11 12 13 14 15 16 15 15 15 15 15 15 16 16 16 16 15 15 15 14 13 12 12 12 11 10 10 9 8 6 7 8 8 8 8 7 7 6 8 10 13 14 14 15 16 17 17 16 15 15 15 16 16 15 14 14 13 12 12 11 11 12 12 12 12 13
19 20 19 17 18 19 18 18 17 16 17 17 16 16 15 14 12 12 12 12 13 14 15 15 15 15 14 14 13 14 15 16 16 15 15 14 14 13 12 11 11 10 10 9 9 9 8 8 6 6 7 8 8 8 8 8 7 7 10 13 15 14 14 15 17 16 16 16 15 15 15 15 14 13 12 12 11 10 10 10 10 10 11 11 11
19 20 19 17 17 19 18 17 17 16 17 17 17 17 16 14 13 13 13 13 14 14 15 15 15 15 14 14 14 15 16 16 16 16 15 15 15 14 13 11 11 10 9 8 8 8 8 8 8 8 8 8 8 8 8 9 8 8 10 13 14 15 14 15 16 16 16 16 15 14 14 14 13 12 11 10 9 8 8 8 8 9 9 9 10
18 19 19 18 16 17 18 17 17 16 17 17 17 17 16 14 14 13 13 13 14 14 15 15 15 15 15 15 15 15 16 16 16 16 16 15 14 14 13 12 11 10 9 7 6 6 7 9 10 9 9 9 10 9 9 10 10 9 10 12 14 15 14 16 17 15 15 16 15 14 14 13 12 11 10 9 8 7 7 7 7 8 8 8 9
18 18 18 18 16 16 17 17 17 17 17 17 18 18 16 15 14 14 13 13 13 14 14 15 15 15 15 15 14 14 15 15 16 16 15 14 13 13 12 11 11 10 9 8 6 5 6 8 10 10 10 11 11 11 11 11 11 10 11 12 14 15 16 17 17 16 15 15 16 15 14 13 11 10 9 8 6 5 5 5 6 6 6 7 8
18 17 17 17 16 16 16 17 17 18 18 17 18 18 17 15 15 14 14 13 13 13 14 14 15 15 15 14 13 13 13 14 15 14 13 12 12 12 11 11 10 9 9 8 7 6 4 7 10 11 11 12 13 13 12 13 13 12 11 12 14 16 17 18 18 16 14 14 15 15 14 13 12 10 8 7 5 4 4 4 4 4 5 6 7
17 16 16 15 16 16 16 16 17 18 18 17 18 18 17 16 15 15 14 13 13 12 12 13 14 14 14 14 13 13 13 13 13 12 11 11 10 10 10 9 9 8 8 8 8 7 5 6 9 11 12 13 14 14 14 14 14 13 12 12 14 17 19 19 18 17 15 14 15 15 14 14 13 10 9 7 5 4 3 3 3 3 3 4 5
17 16 15 14 14 15 16 15 17 18 18 18 17 18 18 17 16 15 14 13 13 12 12 12 12 13 14 14 14 14 13 13 12 11 10 10 10 9 8 8 8 7 7 7 7 7 7 6 8 10 12 14 15 15 15 16 15 15 14 13 15 17 19 19 18 17 16 14 14 14 13 14 13 12 10 8 6 4 3 3 2 1 2 3 4
17 15 14 13 13 15 17 15 16 18 18 18 17 18 18 17 16 15 14 13 12 12 11 11 11 12 12 13 13 14 13 12 12 11 11 10 10 9 7 7 6 6 7 7 7 7 7 7 9 11 11 12 16 16 16 17 16 16 15 15 15 16 17 17 17 17 16 15 15 14 14 14 13 12 11 9 8 6 5 4 3 1 1 2 3
17 15 14 13 12 13 15 15 15 16 17 18 18 17 17 17 16 15 14 13 12 12 11 10 10 10 11 11 11 12 12 12 12 12 12 11 10 9 7 6 6 6 6 6 7 7 8 9 11 12 10 11 16 17 17 17 17 16 16 16 15 14 14 14 15 16 16 15 15 15 15 15 13 13 12 10 9 8 7 5 4 3 1 1 2
17 15 14 12 12 12 14 15 14 14 15 16 17 17 16 17 16 16 15 14 13 12 11 10 9 9 9 9 9 9 10 11 11 11 12 11 10 9 7 6 6 6 6 7 7 8 8 9 10 11 10 11 14 16 18 18 17 16 15 15 15 14 13 12 12 13 14 14 15 15 15 14 13 13 13 12 10 9 8 7 5 4 2 1 1
16 15 14 13 12 12 13 14 14 14 14 15 16 16 16 16 16 17 16 15 13 12 11 10 9 8 8 8 8 8 9 10 10 11 11 10 9 8 7 6 6 6 6 7 8 8 9 10 10 11 11 10 13 16 17 17 17 15 14 14 13 13 12 10 10 10 11 13 13 14 14 14 13 13 13 12 11 10 9 8 6 5 3 1 1
15 15 14 13 12 12 12 13 14 14 13 14 14 15 16 16 16 16 16 16 14 12 11 11 10 8 8 8 8 7 8 9 9 10 10 9 7 7 7 7 6 6 6 6 7 8 9 10 9 11 11 10 12 15 15 15 15 14 13 12 12 13 12 11 9 8 8 9 11 11 11 11 12 12 12 12 11 10 9 8 7 5 3 2 0
15 14 14 13 12 12 12 12 13 13 13 13 13 14 15 16 15 16 16 16 14 13 12 11 10 10 9 8 8 7 6 8 8 9 9 8 6 6 7 7 7 6 5 6 7 8 9 9 10 11 11 11 12 13 13 14 14 13 12 12 12 12 12 12 10 8 7 7 8 8 8 8 9 9 8 8 8 8 7 6 5 4 3 1 0
15 14 13 12 12 12 12 12 13 12 12 13 13 14 14 15 15 16 17 16 15 15 13 11 11 10 10 9 8 7 6 7 8 9 9 8 7 6 7 7 7 6 5 6 7 8 9 10 11 11 12 12 11 11 12 12 12 11 11 11 12 12 12 12 10 9 8 7 6 6 6 6 7 6 5 5 4 4 4 4 3 3 2 1 1
16 15 14 13 13 13 13 12 12 11 10 10 11 12 13 15 14 16 17 15 16 16 14 12 12 11 11 10 9 8 7 8 10 10 9 9 8 7 7 7 7 7 6 7 7 9 10 11 12 12 13 13 12 11 10 11 11 10 9 10 11 12 12 11 10 9 8 7 6 5 4 4 5 5 5 4 4 3 3 3 3 3 2 2 2
17 15 14 13 13 14 14 13 12 10 9 8 8 9 11 12 13 15 14 13 15 17 15 14 14 13 13 11 10 9 9 9 10 11 10 9 8 7 7 7 7 7 7 8 8 10 12 13 14 14 14 14 13 12 10 10 10 10 9 9 9 10 11 11 10 9 8 7 6 5 4 4 5 5 5 5 5 5 4 3 3 3 2 2 2
18 16 15 14 14 13 14 12 11 10 9 9 8 8 8 10 11 12 12 13 16 17 17 16 15 14 12 11 11 11 9 9 10 11 11 9 8 6 6 6 6 7 6 7 8 11 14 15 15 16 16 16 15 13 12 11 11 10 9 8 8 8 9 10 9 9 8 7 6 6 5 5 4 4 5 5 5 5 5 3 2 2 2 1 2
18 17 16 14 14 13 13 11 11 10 9 8 8 7 7 8 9 10 11 12 15 17 17 16 15 13 12 11 11 11 8 8 10 11 11 9 8 6 6 6 7 7 6 6 7 9 13 15 16 16 16 17 17 15 14 12 12 11 9 8 7 8 9 9 9 8 7 6 5 5 5 5 4 4 4 5 6 5 5 4 3 2 1 1 1
19 18 16 15 14 13 12 11 10 9 8 7 7 7 6 6 7 8 9 10 13 15 15 15 14 13 12 11 11 10 8 9 10 10 10 9 7 7 7 6 7 8 7 6 6 8 11 14 16 17 16 15 16 18 16 15 13 12 10 8 7 8 9 9 9 8 7 6 5 4 4 4 4 5 4 5 6 5 5 4 3 2 2 2 1
20 18 16 15 14 12 12 11 10 9 8 7 7 7 5 5 6 7 8 10 11 12 14 14 14 13 12 12 11 11 9 10 10 10 10 9 9 8 8 7 8 9 8 7 7 8 11 14 16 17 17 15 15 18 19 17 15 12 11 9 7 8 9 9 9 7 6 5 5 4 3 4 4 5 4 5 5 5 5 4 4 3 3 3 3
20 19 16 15 14 12 12 11 10 10 9 8 7 7 5 4 5 6 8 9 9 10 12 13 13 12 12 12 11 11 10 10 10 11 11 10 10 9 9 8 8 9 8 7 7 8 10 13 16 16 16 15 14 17 19 19 17 14 11 10 8 9 9 9 9 8 7 5 4 4 3 3 3 4 4 5 5 5 5 5 5 5 4 4 4
19 18 16 15 14 13 12 12 11 11 10 10 9 9 7 6 6 6 7 8 8 9 9 11 13 13 13 13 12 12 11 11 11 11 10 10 10 9 9 8 8 9 8 7 6 7 9 12 16 17 17 16 15 16 19 20 18 15 12 11 10 10 10 8 8 8 7 5 4 3 2 2 2 3 4 4 4 5 6 6 6 5 5 5 4
18 17 16 14 13 13 12 12 11 11 11 11 11 10 9 8 8 8 8 8 8 8 8 10 12 13 13 13 13 12 11 11 11 10 9 9 9 9 9 8 8 9 8 8 6 6 8 11 15 18 18 16 16 16 18 20 20 17 14 12 12 11 10 9 8 7 7 6 4 3 2 1 1 2 2 3 3 4 5 5 5 5 6 6 5
16 15 14 13 12 12 11 11 11 10 10 10 10 9 9 9 9 8 8 8 8 7 7 8 10 12 13 13 12 11 11 11 11 10 9 9 9 10 10 9 9 9 9 9 7 6 7 10 14 18 18 17 16 17 17 19 21 19 15 14 13 12 11 10 9 7 6 5 4 3 2 1 0 0 0 1 1 1 2 2 3 3 4 5 5
15 14 12 11 10 9 9 9 9 10 9 8 8 8 8 8 8 8 9 9 8 7 7 8 10 11 12 13 12 11 11 11 11 10 10 9 10 11 11 11 11 11 11 10 9 7 6 8 12 17 18 17 17 17 17 17 19 20 17 15 14 12 11 10 9 8 5 4 3 2 2 1 1 0 0 1 1 0 0 1 1 1 1 3 3
14 12 10 8 8 7 8 8 8 8 8 8 8 8 8 8 8 8 9 9 9 7 7 8 10 10 11 12 11 11 11 11 11 11 11 11 12 13 12 12 12 13 13 12 11 9 6 6 10 17 19 17 15 16 16 15 17 19 18 17 15 14 12 12 11 9 7 5 4 3 2 2 0 0 0 1 1 1 1 2 2 2 2 1 2
13 10 8 7 7 7 7 7 6 7 7 7 7 7 7 8 9 8 8 9 9 9 9 9 10 11 11 11 11 12 12 12 12 13 12 11 12 13 12 13 14 14 14 13 11 9 7 5 8 14 17 16 14 14 14 14 15 17 18 18 17 16 14 13 12 10 8 7 6 5 4 3 2 1 0 0 1 2 2 2 3 3 3 3 3
12 9 7 6 6 5 6 5 5 5 5 5 5 5 6 8 9 8 8 8 9 10 11 10 11 12 11 11 12 13 13 13 13 14 13 11 12 14 12 12 14 13 14 14 12 10 7 5 7 11 13 14 14 13 13 13 14 16 18 19 19 18 17 15 14 12 10 8 8 7 6 5 4 2 1 0 1 2 3 3 3 4 4 4 4
11 8 7 5 5 5 5 4 4 4 4 4 4 4 5 7 8 7 7 8 9 11 11 11 12 13 13 13 13 13 14 13 13 13 12 11 11 13 13 11 11 12 14 16 14 12 8 6 9 12 12 13 15 14 12 11 13 15 17 19 20 20 19 18 16 14 12 10 9 8 7 7 5 4 3 2 1 1 3 3 4 5 4 4 4
9 7 6 5 4 4 4 3 3 4 4 4 3 3 5 6 7 7 7 7 8 8 8 10 11 12 13 14 13 14 14 14 14 12 12 11 10 12 12 10 10 11 12 15 15 14 12 11 13 13 13 13 15 17 15 11 11 14 16 18 20 21 21 20 18 17 15 13 11 10 9 7 6 5 4 3 2 2 2 3 4 5 5 5 5
9 5 5 5 4 3 3 3 3 3 4 4 3 4 4 5 6 6 6 6 6 6 6 7 7 8 9 10 12 14 14 14 14 13 12 11 10 12 11 9 10 8 8 12 15 17 16 15 16 16 15 14 14 17 18 16 13 14 16 17 19 20 22 22 21 20 17 15 13 11 10 9 7 6 5 5 4 3 3 3 4 5 5 6 6
8 6 6 6 5 5 4 3 3 3 4 4 4 4 5 6 6 6 7 7 7 7 7 6 5 4 5 7 9 10 11 11 12 12 12 9 8 9 9 9 9 8 9 11 13 17 18 17 18 19 18 17 16 15 17 18 17 15 15 16 18 20 21 22 21 20 17 15 13 12 11 10 9 8 7 7 6 4 3 3 3 4 5 6 6
9 8 7 6 6 6 5 4 4 4 4 4 4 5 5 6 6 7 7 8 9 8 7 6 4 3 3 5 6 6 6 6 7 7 7 8 7 7 7 8 9 9 9 9 10 15 19 19 20 21 20 19 18 17 16 18 19 17 16 16 18 20 21 19 18 16 15 13 12 11 11 10 9 8 7 7 7 6 5 4 4 4 4 4 5
11 10 9 7 6 6 7 6 5 5 4 4 4 4 5 5 6 7 7 8 8 7 6 5 4 3 4 4 5 6 5 5 4 3 3 5 7 7 7 9 9 10 9 8 8 12 18 21 21 20 21 20 20 19 19 19 19 18 17 16 17 18 19 18 16 15 13 12 11 10 10 9 9 8 7 7 7 7 7 6 6 5 5 4 4
13 13 12 10 8 8 9 8 6 6 4 4 4 4 4 4 5 6 6 6 5 4 3 4 4 4 5 6 6 6 6 5 4 3 2 2 4 7 9 10 9 9 10 10 9 10 14 19 20 20 20 21 21 20 20 20 20 20 18 17 17 17 18 18 18 16 14 13 11 10 9 9 9 9 9 9 8 8 8 8 8 7 7 6 5
16 15 14 12 10 10 10 8 7 6 4 4 4 4 4 4 4 5 5 5 2 1 1 1 1 2 2 2 3 3 3 3 4 3 3 2 1 3 5 7 9 10 11 10 10 11 12 14 18 20 20 20 21 21 21 21 22 21 19 19 18 17 18 18 19 18 16 15 14 12 10 10 10 9 9 9 9 8 8 8 9 9 8 8 7
19 18 16 14 12 11 10 8 6 5 4 3 3 3 3 3 4 5 5 4 4 4 4 2 2 2 3 3 3 2 2 1 2 3 3 2 1 1 1 2 4 6 8 9 10 11 11 12 15 18 20 20 20 20 21 22 21 20 19 18 18 17 17 17 19 19 17 16 16 14 13 11 10 9 9 9 9 9 9 9 10 10 10 9 9
22 20 18 16 14 12 11 9 7 5 5 4 4 4 3 3 4 5 6 5 6 5 4 4 3 4 5 6 5 5 4 3 2 2 2 2 2 1 1 1 1 2 3 5 7 8 9 10 11 13 16 18 18 18 19 20 20 18 17 17 17 18 18 16 17 19 18 17 16 15 15 14 13 12 11 11 11 11 11 11 11 11 11 11 11
25 22 20 18 16 14 11 10 8 6 6 6 6 6 5 6 6 7 7 6 6 5 5 5 5 6 7 7 7 6 5 4 4 3 3 3 3 2 2 2 3 4 4 3 3 4 4 4 5 6 7 10 14 17 19 19 18 17 16 17 16 17 18 18 17 18 18 18 17 16 16 15 15 16 16 15 14 14 13 13 13 13 13 13 13
28 25 23 21 18 15 12 10 9 8 8 8 8 7 7 8 9 8 8 7 6 6 6 6 6 7 7 8 8 7 6 5 6 6 5 4 3 3 2 2 2 3 4 3 3 3 3 2 2 2 3 3 6 11 15 15 16 15 14 15 16 14 15 17 17 17 18 18 18 18 17 16 16 17 17 17 16 16 15 15 15 15 15 15 15
31 29 26 24 20 16 14 11 10 9 9 9 9 8 9 10 10 10 10 9 8 7 7 7 6 6 7 7 8 7 6 6 6 7 7 6 5 4 3 2 2 2 3 2 2 3 3 3 2 2 2 2 2 4 7 8 10 12 13 13 12 11 13 16 15 14 16 17 16 16 16 17 17 18 19 18 18 18 17 17 17 16 16 15 15
33 31 28 25 21 18 16 14 12 11 11 10 9 8 9 10 10 10 10 10 9 8 8 6 6 6 6 7 7 7 6 6 6 7 7 7 6 5 4 3 2 2 2 1 1 2 2 3 3 2 2 3 4 3 4 5 6 7 11 12 11 10 11 13 12 10 12 14 15 15 15 16 16 17 18 18 19 19 19 18 18 18 17 17 16
35 33 30 27 23 20 19 16 14 13 12 11 10 9 9 9 9 9 8 9 9 8 7 6 5 5 5 6 6 7 6 6 6 7 7 7 7 7 6 5 4 3 2 1 0 1 2 3 3 3 3 3 4 4 4 5 4 4 7 9 12 12 10 10 10 10 10 11 13 13 14 16 16 15 14 14 15 16 16 17 17 18 18 18 18
36 35 32 30 26 23 21 18 16 15 13 12 12 10 9 10 11 10 8 8 8 7 6 6 5 4 4 5 5 6 6 5 6 7 8 8 8 8 7 6 6 5 4 3 2 2 2 1 1 2 3 3 4 5 5 5 5 5 6 6 7 8 9 9 10 10 9 10 12 13 14 16 16 15 14 12 13 14 14 15 15 16 16 15 15
36 36 34 31 28 25 22 20 18 17 15 13 13 12 11 12 13 13 10 9 9 8 7 6 5 4 4 4 4 5 5 5 5 6 7 8 8 7 7 6 5 5 4 3 3 3 3 2 1 1 1 2 3 5 6 6 6 6 6 6 5 6 7 7 9 10 8 9 10 11 14 16 17 16 16 15 15 15 16 16 16 16 16 14 13
37 37 35 33 30 26 24 22 20 19 17 15 15 14 13 14 15 14 13 10 10 11 9 8 7 6 5 4 4 4 4 3 4 4 5 6 6 5 5 4 4 4 4 3 3 3 4 4 3 3 3 3 3 3 4 5 6 7 7 7 7 8 7 7 8 8 7 8 9 9 10 13 17 18 19 19 18 19 20 20 20 20 19 18 17
39 38 36 34 31 28 27 25 22 20 19 18 16 15 15 15 15 15 14 12 11 12 11 10 9 8 7 5 5 4 3 3 3 3 4 4 4 3 3 2 3 3 3 3 3 3 3 4 4 5 5 5 5 5 5 5 6 7 7 7 7 8 9 8 8 8 6 7 9 9 9 10 15 17 18 19 19 19 19 20 21 21 22 22 22
Wind_Direction
172 176 173 169 169 164 164 164 165 169 166 160 156 153 149 144 137 134 135 136 137 137 138 140 144 150 158 166 169 170 166 164 163 159 160 157 155 158 156 152 149 148 148 143 138 137 138 139 140 139 135 141 138 123 118 118 119 120 129 131 132 132 132 132 129 128 126 126 127 127 124 120 117 114 110 106 101 97 92 86 82 77 72 68 64
168 173 172 169 168 166 164 164 171 170 164 160 157 152 147 141 134 132 133 133 133 132 133 135 139 147 155 161 165 164 162 163 161 157 153 149 150 156 155 153 151 147 144 140 138 138 138 142 148 146 137 145 146 129 125 126 126 128 134 135 134 132 132 132 130 130 128 130 131 130 125 121 119 116 112 107 101 95 90 85 80 75 71 66 62
166 169 168 168 169 168 166 167 172 167 162 160 157 153 147 141 137 134 132 132 130 129 130 131 132 137 145 151 155 157 159 161 158 154 149 147 147 148 150 151 149 142 139 140 139 139 141 145 150 147 141 151 153 138 134 134 136 140 143 139 134 132 133 133 133 132 132 134 132 131 127 124 121 118 114 109 103 95 88 81 75 70 66 61 58
168 166 165 168 170 169 167 168 171 165 162 162 158 154 149 144 141 136 132 131 129 128 128 129 131 132 138 146 153 156 159 160 157 153 147 142 141 141 143 143 143 140 141 143 144 147 152 151 151 149 148 160 159 149 144 142 148 148 146 140 134 136 139 139 137 136 137 135 132 132 129 127 125 122 118 113 105 97 89 80 72 66 62 55 51
169 167 163 167 170 170 169 169 170 166 164 163 159 155 151 147 143 136 131 131 128 126 127 129 133 134 138 145 150 154 157 158 155 151 146 142 139 137 138 141 146 150 152 152 155 162 167 167 167 162 162 169 166 160 152 151 157 151 149 144 139 140 142 142 142 140 139 137 135 134 131 130 129 126 121 116 109 100 90 79 70 62 57 50 46
169 167 163 165 169 171 172 171 169 168 167 164 160 157 154 150 144 136 132 130 128 126 127 130 134 137 139 141 144 149 152 153 154 153 152 149 143 139 140 144 148 154 156 157 164 172 180 186 184 177 174 178 175 169 159 158 159 158 159 152 144 143 142 142 144 143 141 138 137 136 134 134 133 130 126 121 113 103 91 79 69 58 49 41 39
169 167 165 167 168 171 173 171 169 170 168 165 162 159 156 151 145 138 133 131 128 127 128 132 137 141 141 142 145 149 152 155 156 155 154 151 148 145 145 145 146 152 152 156 168 176 187 196 196 187 179 182 181 174 166 163 163 162 167 160 150 146 143 143 143 143 144 141 139 139 137 137 136 134 131 127 119 106 91 78 67 56 45 36 31
168 165 166 167 167 172 176 174 169 173 171 166 164 162 159 152 147 141 135 132 129 129 131 135 140 145 148 150 152 154 157 159 158 154 153 151 149 148 149 149 148 150 148 152 160 168 187 201 200 186 177 183 183 177 171 166 164 163 169 168 156 148 145 144 144 144 148 146 143 143 141 139 140 140 136 133 126 112 93 76 65 54 43 36 28
166 163 164 165 167 172 177 177 170 173 175 170 167 165 161 156 152 145 139 134 130 131 133 138 143 147 151 156 160 160 158 157 157 154 152 148 145 145 149 152 151 151 151 151 150 153 177 206 203 184 174 178 182 178 173 168 162 161 165 168 158 148 145 147 146 146 152 150 146 146 145 142 143 147 143 139 134 122 101 79 65 50 40 36 29
163 160 161 161 168 172 174 176 173 175 176 173 171 168 165 161 157 151 145 139 134 133 135 140 144 148 151 155 160 159 155 155 156 153 151 146 142 144 148 151 151 153 153 154 151 152 166 201 200 184 176 175 180 179 172 166 158 154 156 159 155 148 146 148 147 148 154 153 150 150 149 146 147 150 149 150 145 135 119 97 72 52 38 35 30
160 158 158 160 165 170 174 178 179 177 174 175 174 172 171 167 163 157 153 147 141 137 137 141 145 148 151 154 156 157 157 158 158 154 150 146 144 144 143 144 148 151 151 156 154 155 163 178 180 179 184 179 178 178 170 162 156 152 150 149 148 147 148 148 149 151 155 156 155 152 151 151 152 154 154 155 154 153 148 135 118 74 34 34 30
159 156 154 158 160 164 173 178 180 178 174 177 176 174 176 173 169 164 162 158 151 145 140 141 145 148 150 154 157 161 165 167 166 163 160 154 148 146 144 142 147 155 152 154 156 159 163 164 166 175 192 188 177 175 170 163 158 152 147 146 145 146 147 148 151 153 156 158 158 155 154 157 158 156 157 159 161 165 167 164 164 151 48 36 27
158 156 153 154 158 160 169 175 180 179 175 180 178 176 180 179 176 172 171 169 163 155 147 142 143 146 149 152 156 163 168 171 173 174 173 165 158 155 154 153 158 163 157 157 163 167 168 166 170 179 195 195 183 176 173 169 161 153 149 148 146 145 145 146 151 155 159 160 160 160 159 162 164 161 160 163 167 170 174 178 180 178 182 61 27
161 156 152 150 156 158 165 172 180 182 180 186 183 178 182 184 183 182 180 178 173 165 156 150 144 143 147 151 156 160 164 170 172 173 174 169 167 165 161 163 167 168 167 167 171 172 172 174 176 184 196 203 196 183 179 176 166 156 151 150 148 144 142 144 149 154 160 162 163 163 162 167 170 168 166 167 172 175 179 184 186 187 190 184 33
166 158 152 150 155 157 163 169 178 184 183 187 184 180 184 185 189 190 189 186 180 171 164 161 156 150 149 151 158 160 163 167 167 168 170 169 168 167 164 171 179 179 180 177 173 176 179 180 179 183 194 208 204 190 182 180 170 161 155 152 149 143 139 138 144 150 156 161 163 164 166 171 175 175 173 172 175 178 184 187 190 193 193 196 48
168 160 152 151 154 157 161 165 175 183 185 186 183 184 187 188 191 192 195 193 186 177 171 170 170 167 163 160 160 162 165 172 175 172 170 170 170 173 175 177 186 189 188 183 174 181 186 182 179 183 190 200 201 193 188 183 173 164 159 154 150 145 139 133 136 143 146 154 159 164 169 175 179 181 181 179 179 182 188 191 193 196 196 200 151
168 162 153 152 154 154 156 161 171 179 185 188 189 190 191 191 189 193 198 193 184 184 182 179 179 179 178 173 168 167 171 181 189 183 177 178 176 179 185 182 187 192 190 187 181 185 191 188 185 185 187 192 199 203 199 190 176 166 163 157 153 148 142 134 131 136 137 142 148 156 167 176 181 185 191 188 188 192 195 199 201 208 211 222 218
167 161 154 152 153 151 154 160 165 172 180 182 186 191 196 197 194 199 197 187 187 192 188 182 181 184 185 182 181 180 182 190 195 193 188 185 180 179 185 182 182 189 194 194 193 192 195 199 197 192 192 194 199 209 212 202 182 168 165 160 155 150 144 137 131 133 136 137 139 143 153 169 176 179 187 193 199 203 208 222 232 246 259 288 347
164 160 157 155 153 151 154 159 163 166 174 175 180 186 197 202 199 205 198 190 201 196 184 181 183 187 188 186 188 190 194 198 197 195 193 188 187 186 185 181 181 189 201 204 204 201 202 208 209 204 200 199 199 206 218 216 196 174 168 163 158 153 147 140 134 133 136 138 140 141 144 154 164 167 173 181 184 186 200 240 257 270 287 329 3
163 160 159 159 156 154 154 155 158 159 163 166 174 179 193 202 198 204 202 200 207 194 183 187 190 191 189 189 192 193 200 206 204 196 192 191 191 193 191 189 189 192 203 214 214 207 204 210 215 215 209 203 201 204 215 226 216 192 173 166 161 158 152 146 140 133 133 136 141 145 149 155 157 159 166 169 167 171 182 214 249 267 291 340 13
164 162 161 161 160 159 157 154 155 155 156 157 162 170 183 197 198 200 199 202 205 196 190 191 194 197 192 194 198 198 202 210 212 198 188 192 195 195 197 197 194 190 198 215 222 212 206 207 212 218 217 212 206 207 213 226 232 214 189 174 166 166 161 150 142 134 129 130 137 144 153 162 158 156 164 168 166 168 177 189 224 256 278 331 22
166 164 162 163 164 163 163 161 161 160 159 157 155 163 175 188 197 196 193 199 204 201 198 195 197 199 197 201 203 203 205 211 214 202 190 194 199 203 207 202 193 188 190 204 218 217 210 208 211 215 219 219 214 212 214 223 236 231 210 191 178 178 170 155 146 135 128 126 131 139 149 162 158 157 162 170 172 170 176 186 201 235 264 299 9
170 168 165 163 166 166 168 168 170 170 168 162 154 162 173 180 192 196 191 197 206 205 205 206 204 200 203 206 208 210 209 213 215 204 197 197 204 211 208 203 196 193 193 196 205 214 215 214 215 216 219 221 217 214 216 221 232 236 225 210 195 188 176 159 151 136 127 124 124 130 142 158 157 157 160 170 180 178 181 194 204 224 259 283 303
174 173 169 166 167 169 171 172 174 179 178 172 166 168 174 180 194 201 195 195 205 208 209 214 209 203 208 212 214 218 213 215 214 203 201 201 208 214 206 200 196 196 199 196 193 204 215 219 220 221 221 220 217 212 213 221 227 230 230 223 210 201 187 166 155 142 133 124 118 122 131 153 159 158 159 164 180 186 188 204 214 224 248 276 291
175 175 174 171 171 173 176 178 179 184 188 188 189 191 193 202 211 212 205 199 203 210 214 217 216 212 216 218 217 221 218 215 214 208 208 209 214 218 212 208 201 199 203 198 193 198 210 220 222 225 226 222 216 212 210 217 225 227 228 226 215 208 202 180 163 152 142 133 124 122 122 143 157 158 159 160 175 189 194 205 215 223 233 257 283
174 176 178 178 181 183 183 186 190 193 197 201 207 213 220 231 235 222 212 208 210 216 219 219 220 220 220 220 218 223 223 218 217 213 214 219 223 224 222 220 210 205 206 206 203 201 210 219 221 224 230 227 218 213 211 214 222 225 225 222 214 210 212 201 182 164 150 143 132 122 117 134 158 158 158 159 173 189 197 206 212 221 229 241 264
173 178 184 188 193 198 201 201 203 206 209 214 219 225 230 235 234 226 217 214 216 219 223 222 222 220 220 221 219 224 226 222 219 214 217 223 223 225 227 227 220 213 211 213 215 212 217 221 219 220 227 230 221 214 213 214 218 223 223 219 215 212 212 209 198 181 160 147 134 121 108 115 170 164 153 159 170 186 201 211 215 222 230 239 250
172 178 183 189 195 201 207 207 209 212 214 218 222 226 231 231 227 225 222 219 217 216 221 227 226 220 218 222 222 224 227 224 219 212 217 223 221 223 225 225 222 218 217 216 221 224 223 222 220 219 223 228 222 214 214 214 216 220 221 219 216 213 212 208 202 193 177 157 143 126 106 65 242 186 142 140 151 179 201 222 229 233 238 246 257
169 171 173 178 184 190 195 198 201 205 210 215 221 226 231 234 231 228 228 226 224 219 219 224 226 222 220 225 225 226 229 226 221 217 222 227 228 230 228 226 223 222 222 218 220 227 231 230 221 217 218 223 221 215 214 213 215 218 220 219 217 215 213 209 204 201 203 197 181 162 142 92 9 341 354 2 7 3 12 15 354 329 285 272 281
166 163 164 168 175 182 184 184 189 194 200 207 216 226 233 240 240 236 232 231 232 232 229 222 221 222 225 230 230 231 233 226 221 222 227 233 237 238 237 239 237 233 228 219 221 225 235 243 219 215 215 215 218 217 216 214 214 218 219 218 219 219 217 214 213 213 219 227 222 210 190 179 194 329 4 2 4 9 15 29 31 29 27 8 355
166 161 164 171 180 185 186 187 189 189 193 199 206 216 226 236 240 240 234 235 237 237 239 231 222 221 224 228 229 232 234 225 221 224 228 236 245 244 242 247 248 246 233 219 218 218 228 242 212 212 213 208 211 214 216 215 213 217 218 217 219 222 223 221 221 222 226 231 232 227 212 193 186 202 292 27 19 14 18 28 34 38 41 39 37
167 167 171 177 186 194 195 196 196 197 201 204 207 210 217 229 237 240 238 240 240 233 235 235 228 225 224 225 227 231 235 233 229 231 232 239 248 250 250 249 251 254 240 222 214 208 219 231 201 198 202 200 203 203 207 213 213 216 217 216 220 224 229 230 230 230 233 236 233 229 220 202 191 199 219 243 23 14 15 20 24 30 34 34 38
171 173 179 184 196 205 204 204 202 208 211 210 216 213 209 221 232 237 238 245 246 235 232 235 232 230 230 231 233 232 235 240 240 242 243 242 247 254 257 251 251 254 239 222 212 204 205 205 193 189 189 193 200 200 201 207 213 218 219 218 221 227 233 235 237 238 239 240 233 228 221 211 202 203 216 237 289 350 2 10 13 11 12 13 19
176 175 185 197 209 214 214 216 215 217 216 213 219 208 199 211 227 233 234 241 247 241 236 241 238 237 240 241 244 244 240 240 242 248 254 252 254 261 264 258 251 252 237 223 213 204 197 192 190 191 192 194 202 207 210 212 212 216 221 222 223 229 235 237 240 242 244 240 232 228 224 219 212 210 222 243 268 307 339 358 6 3 360 358 358
184 185 192 204 216 221 219 224 233 231 216 209 206 195 190 200 217 230 237 241 244 246 246 249 248 245 252 252 256 259 255 249 246 248 251 255 259 260 263 256 245 243 232 224 220 211 201 194 193 195 200 203 205 208 215 221 221 217 219 222 224 229 234 237 240 243 244 238 232 230 224 223 224 226 234 246 265 290 311 337 355 1 2 359 356
188 199 207 210 214 211 205 216 241 239 216 205 194 186 189 196 214 229 242 253 255 260 263 266 268 261 261 262 262 266 265 262 261 258 254 252 251 249 250 246 239 236 228 227 227 217 208 203 201 202 204 206 210 212 215 220 224 225 222 220 224 229 233 237 240 240 240 235 233 231 227 228 232 236 241 247 259 275 287 306 330 351 1 1 358
196 208 218 222 221 209 200 202 218 227 217 208 191 182 191 201 219 235 248 258 263 268 276 280 278 263 255 263 270 277 279 281 279 272 258 242 239 239 237 235 230 229 231 232 229 219 215 215 212 209 209 208 213 217 220 222 224 227 229 226 225 229 232 234 234 233 232 231 231 231 230 233 235 239 243 247 256 264 271 283 296 314 338 353 353
208 214 221 232 235 221 207 201 207 213 206 199 192 187 198 213 231 246 254 260 263 267 275 275 268 262 261 263 271 277 282 287 285 278 249 228 236 238 229 227 225 223 228 231 229 221 217 220 221 219 217 216 218 220 223 228 230 232 235 234 229 229 230 227 227 229 230 231 231 232 232 233 235 237 240 244 251 257 263 271 278 286 296 312 327
216 217 221 229 234 227 214 204 202 205 196 188 193 195 206 226 242 248 249 253 262 267 265 262 259 262 268 270 271 272 271 268 268 270 257 225 231 233 230 234 234 230 230 227 229 229 221 220 226 228 225 224 227 229 230 233 237 237 235 237 234 232 233 232 231 232 234 235 234 236 234 234 236 237 239 242 246 250 255 262 267 275 282 286 290
219 219 222 227 229 226 216 204 200 200 190 182 195 203 216 223 218 221 232 239 235 158 157 201 238 259 277 290 286 283 275 255 247 253 261 255 219 234 234 237 238 237 239 233 230 235 231 223 225 230 230 229 233 237 239 239 243 242 238 240 239 237 239 239 237 236 237 240 239 238 237 237 240 242 241 242 244 247 252 257 261 265 272 278 280
220 221 223 226 226 225 220 209 200 194 177 171 185 191 206 213 193 191 196 182 140 119 118 121 98 68 61 59 57 49 60 135 212 224 240 238 208 227 228 228 233 233 237 237 233 235 237 231 226 230 231 230 234 236 237 240 246 247 241 239 239 241 244 242 240 239 240 242 241 241 239 236 236 238 239 242 246 250 254 259 262 264 266 272 275
222 223 224 226 225 223 222 215 203 186 168 167 170 165 167 165 164 167 160 142 129 124 119 112 98 81 73 71 67 60 62 75 115 167 196 188 168 187 166 145 131 145 193 216 225 230 236 235 230 230 228 227 231 233 234 239 246 249 245 242 241 242 244 244 242 241 242 245 244 243 244 243 241 243 248 252 255 256 257 260 263 266 265 266 269
224 225 225 225 223 220 220 217 205 184 169 171 170 166 166 157 152 153 146 136 131 129 123 113 102 91 84 78 72 64 61 71 86 109 141 152 148 156 147 141 126 117 129 155 185 203 217 231 233 231 225 225 228 230 232 236 243 247 246 248 247 241 240 242 243 242 243 245 244 246 249 250 249 250 254 257 259 259 259 261 263 266 266 264 264
223 224 225 225 222 218 220 218 205 186 174 177 176 171 172 167 159 155 149 143 142 137 129 118 106 96 88 80 73 66 63 73 86 96 111 131 141 154 161 166 154 137 138 143 152 166 175 197 219 218 224 237 231 227 228 233 239 240 238 241 243 240 239 240 241 242 245 248 248 248 249 250 250 251 253 256 259 259 258 259 262 265 265 264 262
224 224 225 225 222 218 220 219 205 189 179 183 185 178 178 178 170 165 160 156 153 145 134 123 112 101 90 82 75 67 62 73 87 92 101 113 125 136 152 171 183 175 179 184 176 174 178 191 200 198 202 216 216 215 219 224 230 232 231 230 230 232 238 240 239 239 240 244 248 249 249 249 249 249 252 255 258 260 259 257 258 260 261 260 260
225 224 224 225 223 218 219 218 208 194 185 187 190 184 186 189 179 172 167 160 156 149 142 135 125 112 99 88 79 72 66 71 83 91 95 99 104 111 117 128 151 173 197 229 220 206 215 222 224 219 199 194 198 205 213 216 222 226 227 228 229 233 241 243 243 243 239 237 241 245 248 251 250 250 252 255 258 259 259 258 257 258 258 258 258
223 224 223 223 221 219 217 218 211 200 191 189 191 189 190 189 179 174 168 162 160 157 158 156 144 126 112 99 87 80 74 74 82 88 90 91 92 95 97 100 104 109 117 103 110 166 198 218 227 226 221 204 194 195 206 215 217 208 209 222 233 238 245 248 247 252 253 245 241 241 247 252 252 253 253 254 256 258 258 258 259 261 262 263 261
222 223 223 222 220 217 216 216 213 205 197 193 193 191 191 184 176 173 169 168 175 178 179 177 167 152 130 114 100 90 83 82 86 90 92 92 93 94 92 90 88 87 84 72 64 78 106 157 198 210 216 212 203 201 204 207 206 202 203 215 227 230 236 244 248 251 255 257 251 245 248 252 251 253 254 255 257 258 259 258 259 262 264 266 265
222 224 223 222 220 216 214 215 215 210 203 199 196 192 191 187 181 177 174 174 184 196 203 201 198 189 163 140 122 105 93 89 91 96 98 98 96 92 88 83 77 72 66 52 39 35 35 32 10 336 282 231 220 215 214 217 219 219 218 220 224 226 228 237 245 246 248 257 257 252 252 252 250 249 249 252 256 259 262 262 261 262 263 264 263
223 225 223 223 221 216 214 215 216 213 210 205 200 195 193 193 191 186 182 182 191 203 210 212 214 212 198 177 153 132 115 103 102 105 108 108 104 96 87 78 65 56 47 38 28 13 358 352 342 329 321 306 282 263 248 243 245 247 244 238 236 238 242 245 248 249 250 255 259 259 257 253 251 251 249 251 255 259 262 264 265 266 266 266 264
223 225 224 223 221 218 217 217 217 217 215 211 205 200 198 198 199 194 189 191 200 210 215 217 221 223 217 202 184 169 155 140 131 129 131 131 125 116 104 81 57 43 36 35 33 22 6 353 345 336 327 319 309 298 289 280 274 273 272 267 259 252 254 257 258 259 259 259 261 265 269 267 261 259 256 254 254 257 260 262 265 268 268 269 268
Height
1520 1521 1523 1524 1525 1525 1526 1527 1529 1530 1531 1532 1533 1534 1534 1535 1535 1536 1536 1537 1537 1538 1538 1539 1540 1541 1541 1542 1543 1544 1545 1545 1546 1546 1547 1547 1547 1548 1549 1550 1550 1551 1551 1552 1553 1554 1555 1556 1556 1556 1556 1557 1557 1557 1557 1557 1557 1556 1556 1556 1556 1557 1557 1558 1559 1559 1560 1560 1561 1561 1562 1562 1562 1562 1562 1562 1562 1561 1561 1561 1561 1560 1560 1560 1559
1519 1521 1523 1524 1525 1525 1527 1528 1529 1530 1531 1532 1533 1534 1535 1535 1536 1536 1537 1537 1538 1538 1539 1539 1540 1541 1542 1542 1543 1544 1545 1545 1546 1547 1547 1548 1548 1549 1550 1551 1551 1552 1552 1553 1554 1555 1556 1556 1556 1557 1557 1557 1557 1557 1557 1558 1557 1557 1557 1557 1557 1557 1558 1559 1560 1560 1561 1561 1562 1562 1562 1563 1563 1564 1564 1564 1563 1563 1562 1562 1562 1562 1561 1561 1561
1519 1521 1523 1524 1525 1526 1527 1528 1529 1530 1531 1532 1533 1534 1535 1536 1536 1537 1537 1538 1538 1539 1539 1540 1541 1541 1542 1543 1544 1544 1545 1546 1547 1548 1548 1548 1549 1550 1551 1552 1552 1552 1552 1553 1554 1555 1556 1556 1557 1557 1558 1558 1558 1558 1558 1558 1558 1558 1558 1557 1558 1558 1559 1560 1560 1561 1562 1562 1563 1563 1563 1564 1564 1565 1565 1565 1565 1564 1564 1564 1563 1563 1562 1562 1562
1520 1521 1523 1524 1525 1526 1527 1528 1530 1531 1532 1533 1534 1535 1535 1536 1537 1537 1538 1538 1539 1539 1540 1540 1541 1542 1543 1543 1544 1545 1546 1546 1547 1548 1549 1549 1550 1551 1551 1552 1552 1553 1553 1554 1555 1555 1556 1556 1557 1558 1558 1558 1558 1558 1558 1558 1558 1558 1558 1558 1558 1559 1560 1560 1561 1562 1562 1563 1564 1564 1564 1565 1565 1566 1566 1566 1566 1565 1565 1565 1565 1564 1564 1563 1563
1520 1521 1524 1525 1526 1527 1528 1529 1530 1531 1532 1533 1534 1535 1536 1537 1537 1538 1538 1539 1539 1540 1540 1541 1541 1542 1543 1544 1545 1545 1546 1547 1548 1549 1549 1550 1551 1551 1552 1552 1553 1553 1554 1554 1555 1556 1556 1556 1557 1558 1558 1558 1558 1558 1558 1558 1559 1559 1559 1559 1559 1559 1560 1561 1562 1562 1563 1564 1564 1565 1565 1566 1566 1567 1567 1567 1567 1566 1566 1566 1565 1565 1565 1564 1564
1520 1522 1524 1525 1527 1527 1529 1529 1530 1532 1533 1534 1535 1536 1536 1537 1538 1538 1539 1539 1540 1540 1541 1542 1542 1543 1544 1544 1545 1546 1547 1548 1548 1549 1550 1550 1551 1551 1552 1553 1553 1553 1554 1555 1555 1556 1556 1556 1557 1557 1558 1558 1559 1559 1559 1559 1559 1559 1560 1559 1559 1560 1560 1561 1562 1563 1564 1564 1565 1565 1566 1566 1567 1567 1568 1568 1568 1567 1567 1567 1566 1566 1566 1565 1565
1521 1523 1524 1526 1527 1528 1529 1530 1531 1532 1533 1534 1535 1536 1537 1538 1538 1539 1540 1540 1541 1541 1542 1542 1543 1544 1544 1545 1546 1547 1547 1548 1549 1549 1550 1550 1551 1551 1552 1552 1553 1553 1554 1555 1555 1556 1556 1556 1557 1557 1558 1558 1559 1559 1559 1559 1559 1559 1560 1560 1560 1560 1561 1562 1563 1564 1564 1565 1565 1566 1567 1567 1568 1568 1568 1569 1569 1568 1568 1568 1567 1567 1566 1566 1565
1522 1523 1525 1526 1528 1528 1529 1530 1531 1532 1534 1535 1536 1537 1537 1538 1539 1540 1540 1541 1541 1542 1542 1543 1544 1544 1545 1546 1547 1547 1548 1549 1549 1550 1550 1551 1551 1551 1552 1552 1553 1553 1554 1555 1555 1556 1556 1556 1556 1557 1557 1558 1559 1559 1559 1559 1559 1560 1560 1560 1560 1560 1561 1562 1563 1564 1565 1565 1566 1566 1567 1568 1568 1569 1569 1569 1569 1569 1569 1568 1568 1568 1567 1567 1566
1522 1524 1525 1527 1528 1529 1530 1531 1532 1533 1534 1535 1537 1537 1538 1539 1540 1540 1541 1542 1542 1543 1543 1544 1545 1545 1546 1547 1547 1548 1549 1550 1550 1550 1551 1551 1552 1552 1552 1553 1553 1553 1554 1555 1555 1555 1556 1556 1556 1557 1557 1558 1558 1559 1559 1559 1559 1560 1560 1561 1561 1561 1561 1562 1563 1564 1565 1566 1566 1567 1567 1568 1569 1569 1569 1570 1570 1570 1570 1569 1569 1568 1568 1568 1567
1523 1524 1526 1527 1529 1529 1530 1532 1532 1533 1535 1536 1537 1538 1539 1539 1540 1541 1542 1542 1543 1544 1544 1545 1545 1546 1547 1547 1548 1549 1550 1550 1551 1551 1551 1552 1552 1553 1553 1553 1553 1554 1554 1555 1555 1555 1556 1556 1556 1557 1557 1557 1558 1559 1559 1560 1560 1560 1561 1561 1561 1561 1561 1562 1563 1564 1565 1566 1567 1567 1568 1568 1569 1569 1570 1570 1571 1571 1570 1570 1569 1569 1569 1568 1568
1523 1525 1526 1528 1529 1530 1531 1531 1533 1534 1535 1536 1538 1538 1539 1540 1541 1541 1542 1543 1544 1544 1545 1545 1546 1547 1547 1548 1549 1549 1550 1551 1551 1552 1552 1553 1553 1553 1553 1553 1554 1554 1555 1555 1555 1555 1555 1556 1556 1556 1557 1557 1558 1559 1560 1560 1560 1561 1561 1562 1562 1562 1562 1563 1563 1564 1565 1566 1567 1568 1568 1569 1569 1569 1570 1570 1571 1571 1571 1570 1570 1569 1569 1569 1569
1524 1525 1526 1528 1529 1530 1531 1532 1533 1534 1535 1536 1538 1539 1539 1540 1541 1542 1543 1543 1544 1545 1545 1546 1547 1547 1548 1548 1549 1550 1550 1551 1551 1552 1552 1553 1553 1553 1553 1553 1554 1555 1555 1555 1556 1555 1556 1556 1556 1556 1557 1558 1558 1559 1560 1561 1561 1561 1562 1562 1563 1563 1563 1563 1564 1565 1565 1566 1567 1568 1568 1569 1569 1569 1569 1570 1570 1571 1571 1571 1570 1570 1570 1569 1569
1524 1525 1527 1528 1529 1530 1531 1532 1533 1533 1535 1536 1537 1539 1540 1541 1541 1542 1543 1544 1544 1545 1546 1547 1547 1548 1548 1549 1550 1550 1551 1551 1552 1552 1553 1553 1554 1554 1554 1554 1554 1555 1555 1555 1556 1556 1556 1556 1556 1557 1557 1558 1559 1560 1560 1561 1561 1562 1562 1562 1563 1564 1564 1564 1564 1565 1566 1566 1567 1567 1568 1569 1569 1569 1569 1570 1570 1570 1571 1571 1570 1570 1570 1570 1570
1524 1525 1527 1528 1529 1530 1532 1532 1533 1534 1535 1536 1537 1539 1540 1541 1542 1542 1543 1544 1544 1545 1546 1547 1548 1548 1549 1549 1550 1550 1551 1551 1552 1552 1553 1553 1554 1554 1554 1554 1554 1555 1555 1556 1556 1556 1556 1556 1557 1557 1558 1559 1559 1560 1560 1561 1562 1562 1563 1563 1563 1564 1565 1565 1566 1566 1566 1567 1567 1568 1568 1568 1569 1569 1569 1569 1570 1570 1570 1570 1570 1570 1570 1570 1570
1525 1526 1527 1528 1529 1531 1532 1533 1534 1534 1536 1537 1537 1539 1540 1541 1542 1542 1543 1544 1545 1546 1547 1547 1548 1549 1549 1549 1550 1550 1551 1551 1552 1552 1553 1553 1553 1554 1554 1554 1554 1555 1555 1556 1556 1556 1556 1556 1557 1557 1558 1559 1560 1560 1561 1561 1562 1563 1563 1564 1564 1565 1565 1566 1567 1567 1567 1567 1568 1568 1568 1569 1569 1569 1569 1569 1570 1570 1570 1570 1570 1570 1570 1571 1571
1525 1526 1527 1528 1530 1531 1532 1533 1534 1535 1536 1537 1538 1539 1540 1541 1542 1543 1544 1544 1545 1546 1547 1548 1548 1549 1549 1549 1550 1550 1551 1551 1552 1552 1553 1553 1553 1554 1554 1555 1555 1555 1555 1556 1556 1557 1557 1557 1557 1558 1558 1559 1560 1561 1562 1562 1563 1563 1564 1564 1565 1565 1566 1566 1568 1568 1568 1568 1568 1569 1569 1569 1569 1570 1570 1570 1570 1570 1570 1570 1571 1571 1571 1571 1571
1526 1527 1528 1529 1530 1531 1532 1533 1534 1535 1536 1537 1538 1539 1540 1541 1542 1543 1544 1545 1546 1547 1547 1547 1548 1548 1549 1549 1550 1550 1551 1551 1552 1552 1553 1553 1554 1554 1555 1555 1555 1555 1555 1556 1556 1557 1557 1557 1557 1558 1558 1559 1560 1561 1562 1563 1563 1564 1564 1565 1565 1566 1566 1567 1568 1569 1569 1569 1569 1569 1569 1570 1570 1571 1571 1571 1571 1571 1571 1571 1571 1572 1572 1571 1571
1526 1527 1529 1530 1531 1531 1532 1533 1535 1536 1536 1537 1538 1539 1540 1540 1541 1542 1542 1545 1546 1546 1546 1547 1548 1549 1549 1550 1550 1550 1551 1551 1552 1552 1553 1553 1554 1554 1555 1556 1556 1556 1556 1556 1556 1557 1558 1558 1558 1558 1559 1559 1560 1561 1562 1563 1564 1565 1565 1565 1566 1566 1567 1567 1568 1569 1569 1570 1570 1570 1570 1570 1570 1571 1571 1572 1572 1572 1572 1573 1573 1573 1573 1572 1572
1526 1527 1529 1530 1531 1531 1532 1534 1535 1536 1536 1537 1538 1539 1539 1539 1541 1541 1542 1544 1544 1544 1546 1547 1548 1548 1549 1550 1550 1551 1551 1551 1551 1552 1553 1553 1553 1554 1555 1556 1556 1556 1556 1556 1557 1557 1558 1558 1558 1559 1559 1560 1560 1561 1562 1563 1565 1565 1565 1566 1566 1567 1567 1567 1568 1569 1569 1569 1570 1570 1571 1571 1571 1571 1571 1572 1572 1572 1573 1573 1573 1573 1573 1573 1573
1526 1527 1529 1530 1531 1532 1533 1534 1535 1536 1536 1537 1537 1538 1538 1539 1541 1541 1542 1543 1543 1544 1546 1547 1547 1547 1548 1549 1550 1550 1550 1550 1551 1552 1552 1553 1553 1554 1555 1555 1556 1557 1557 1557 1557 1557 1558 1558 1559 1559 1560 1560 1561 1562 1562 1563 1565 1566 1566 1566 1567 1567 1568 1568 1568 1568 1569 1569 1570 1570 1571 1571 1571 1571 1571 1572 1572 1572 1573 1573 1573 1573 1573 1574 1574
1526 1527 1529 1530 1531 1532 1533 1534 1535 1536 1536 1537 1538 1538 1538 1539 1540 1541 1543 1543 1543 1544 1545 1546 1546 1546 1547 1548 1550 1550 1550 1550 1551 1552 1552 1553 1553 1554 1554 1555 1556 1556 1557 1557 1557 1557 1558 1558 1558 1559 1560 1561 1561 1562 1562 1563 1565 1566 1567 1567 1567 1568 1568 1568 1568 1569 1569 1569 1570 1570 1570 1571 1571 1571 1572 1572 1572 1572 1573 1573 1573 1573 1573 1574 1574
1525 1527 1529 1530 1531 1532 1533 1534 1535 1536 1536 1537 1538 1538 1539 1539 1540 1541 1542 1542 1543 1544 1545 1545 1545 1546 1547 1548 1549 1549 1550 1550 1550 1551 1551 1552 1553 1554 1554 1555 1555 1556 1557 1557 1557 1557 1558 1558 1558 1558 1559 1560 1562 1562 1563 1563 1564 1566 1567 1567 1568 1568 1568 1568 1569 1569 1569 1569 1570 1570 1570 1571 1571 1571 1572 1572 1572 1573 1573 1573 1573 1573 1573 1574 1574
1525 1527 1529 1530 1531 1532 1533 1534 1535 1535 1536 1537 1538 1538 1539 1539 1540 1540 1541 1542 1543 1543 1544 1545 1545 1546 1547 1547 1548 1549 1549 1549 1550 1551 1552 1552 1553 1554 1554 1555 1555 1556 1557 1557 1557 1557 1558 1558 1558 1558 1559 1560 1562 1563 1563 1563 1564 1566 1567 1567 1568 1568 1569 1568 1569 1569 1569 1569 1570 1570 1570 1571 1571 1571 1572 1572 1573 1573 1573 1573 1573 1573 1574 1574 1574
1525 1527 1528 1530 1531 1532 1533 1534 1535 1535 1536 1536 1537 1538 1538 1539 1539 1540 1541 1542 1542 1543 1543 1544 1544 1545 1546 1547 1548 1548 1548 1549 1550 1551 1551 1552 1553 1554 1554 1554 1555 1556 1557 1557 1557 1557 1558 1558 1558 1559 1559 1560 1561 1562 1563 1563 1564 1565 1566 1567 1568 1569 1569 1569 1569 1569 1569 1570 1570 1570 1570 1570 1571 1571 1572 1572 1573 1573 1573 1573 1573 1574 1574 1574 1574
1525 1527 1528 1529 1530 1531 1532 1534 1534 1535 1536 1536 1536 1537 1538 1538 1539 1540 1540 1541 1542 1542 1543 1543 1544 1545 1546 1546 1547 1548 1548 1548 1549 1550 1551 1552 1553 1554 1554 1554 1555 1556 1556 1557 1557 1557 1557 1558 1558 1558 1559 1559 1561 1562 1563 1563 1564 1565 1566 1567 1568 1569 1569 1569 1569 1569 1569 1570 1570 1570 1570 1570 1571 1571 1572 1572 1572 1573 1573 1573 1573 1574 1574 1574 1574
1525 1526 1528 1529 1530 1531 1532 1533 1534 1534 1535 1535 1536 1537 1537 1538 1538 1539 1540 1541 1541 1542 1542 1543 1544 1544 1545 1546 1546 1547 1548 1548 1549 1550 1551 1552 1553 1553 1554 1554 1555 1555 1556 1556 1557 1557 1557 1557 1557 1558 1558 1559 1560 1561 1562 1563 1564 1565 1566 1567 1567 1568 1569 1569 1569 1569 1569 1570 1570 1570 1570 1571 1571 1571 1571 1572 1572 1572 1573 1573 1573 1573 1573 1574 1574
1524 1526 1527 1528 1529 1530 1531 1532 1533 1534 1534 1535 1535 1536 1537 1537 1538 1538 1539 1540 1540 1541 1542 1543 1543 1544 1545 1546 1546 1547 1547 1548 1549 1550 1551 1552 1553 1553 1553 1554 1554 1555 1555 1556 1556 1556 1556 1556 1556 1557 1557 1558 1559 1560 1561 1562 1563 1564 1565 1566 1567 1568 1569 1569 1569 1569 1569 1570 1570 1570 1571 1571 1571 1571 1571 1572 1572 1572 1572 1573 1573 1573 1573 1573 1573
1524 1525 1526 1528 1529 1530 1531 1532 1533 1533 1534 1534 1535 1536 1536 1536 1537 1537 1538 1539 1540 1540 1541 1542 1542 1543 1544 1545 1546 1546 1547 1548 1549 1550 1551 1552 1552 1552 1552 1553 1553 1554 1554 1555 1555 1555 1555 1555 1556 1556 1557 1557 1558 1559 1560 1562 1563 1563 1565 1566 1567 1568 1568 1569 1569 1569 1569 1570 1570 1570 1571 1571 1571 1571 1572 1572 1572 1572 1573 1573 1573 1573 1573 1573 1573
1524 1525 1526 1527 1528 1529 1530 1531 1532 1533 1533 1534 1534 1535 1535 1536 1536 1537 1537 1538 1539 1540 1540 1541 1542 1543 1543 1544 1545 1546 1547 1547 1548 1550 1550 1551 1551 1550 1551 1552 1552 1552 1552 1553 1553 1553 1553 1554 1554 1555 1556 1556 1557 1558 1560 1561 1562 1563 1564 1565 1566 1567 1568 1568 1569 1569 1569 1570 1570 1570 1570 1571 1571 1571 1571 1572 1572 1572 1573 1573 1573 1573 1573 1573 1573
1524 1525 1526 1527 1528 1529 1530 1531 1531 1532 1533 1533 1534 1534 1534 1535 1535 1536 1536 1537 1538 1539 1539 1540 1541 1542 1543 1544 1544 1545 1546 1546 1547 1549 1550 1550 1549 1549 1550 1551 1551 1550 1550 1551 1551 1552 1552 1552 1553 1553 1554 1555 1556 1557 1559 1560 1562 1562 1563 1564 1566 1566 1567 1568 1568 1569 1569 1569 1570 1570 1570 1570 1571 1571 1571 1572 1572 1572 1572 1573 1573 1573 1573 1573 1572
1524 1525 1526 1527 1528 1528 1529 1530 1531 1531 1532 1532 1533 1533 1534 1534 1534 1535 1535 1536 1537 1537 1538 1539 1540 1541 1541 1542 1543 1544 1544 1545 1546 1547 1549 1549 1548 1548 1550 1550 1550 1550 1550 1551 1551 1551 1551 1551 1551 1552 1553 1555 1556 1557 1558 1559 1561 1562 1563 1564 1565 1566 1566 1567 1568 1568 1569 1569 1569 1570 1570 1570 1570 1570 1571 1571 1571 1572 1572 1572 1572 1573 1573 1573 1572
1524 1525 1526 1527 1527 1528 1529 1530 1530 1531 1531 1532 1532 1533 1533 1533 1533 1534 1534 1535 1536 1536 1537 1538 1539 1539 1540 1541 1541 1542 1543 1544 1545 1546 1548 1548 1547 1547 1549 1549 1549 1549 1549 1550 1551 1551 1551 1551 1551 1552 1553 1554 1555 1556 1558 1559 1560 1561 1562 1563 1564 1565 1566 1566 1567 1568 1568 1568 1569 1569 1569 1569 1570 1570 1570 1571 1571 1571 1571 1572 1572 1572 1572 1572 1572
1523 1525 1525 1526 1527 1527 1528 1529 1530 1530 1531 1531 1531 1532 1532 1532 1532 1533 1534 1534 1535 1535 1536 1536 1537 1538 1539 1539 1540 1540 1541 1542 1543 1544 1546 1547 1546 1546 1546 1547 1548 1547 1547 1549 1550 1551 1551 1551 1552 1552 1553 1554 1555 1555 1557 1558 1559 1560 1561 1562 1563 1564 1565 1566 1566 1567 1567 1568 1568 1569 1569 1569 1569 1569 1570 1570 1571 1571 1571 1571 1571 1571 1572 1572 1572
1523 1524 1525 1526 1526 1527 1528 1528 1529 1529 1530 1530 1531 1531 1531 1532 1532 1533 1533 1533 1534 1535 1535 1536 1536 1537 1538 1538 1539 1539 1539 1540 1542 1542 1544 1545 1545 1544 1544 1546 1546 1545 1546 1547 1549 1549 1550 1551 1551 1552 1553 1554 1554 1555 1556 1558 1558 1559 1560 1561 1562 1563 1564 1564 1565 1566 1566 1567 1567 1568 1568 1568 1569 1569 1569 1570 1570 1570 1570 1571 1571 1571 1571 1571 1571
1523 1524 1525 1525 1526 1527 1527 1528 1528 1529 1529 1530 1530 1531 1531 1531 1532 1532 1532 1533 1533 1534 1534 1535 1536 1536 1536 1537 1537 1537 1537 1539 1540 1541 1542 1543 1543 1543 1543 1543 1544 1544 1545 1546 1547 1547 1548 1549 1550 1551 1552 1553 1554 1554 1555 1557 1558 1558 1559 1560 1561 1562 1562 1563 1564 1565 1565 1566 1567 1567 1568 1568 1568 1568 1569 1569 1570 1570 1570 1570 1570 1570 1571 1571 1570
1522 1523 1524 1525 1526 1527 1527 1527 1528 1528 1529 1529 1530 1530 1531 1531 1532 1532 1532 1532 1533 1533 1534 1534 1535 1535 1535 1536 1536 1536 1536 1538 1539 1539 1540 1541 1541 1541 1541 1541 1541 1543 1543 1544 1544 1546 1547 1547 1548 1549 1550 1551 1552 1553 1554 1555 1557 1557 1558 1559 1560 1560 1561 1562 1562 1563 1564 1565 1566 1566 1567 1567 1568 1568 1568 1569 1569 1569 1569 1570 1570 1570 1570 1570 1570
1522 1523 1524 1525 1526 1526 1527 1527 1527 1528 1528 1529 1529 1530 1531 1531 1531 1531 1532 1532 1532 1532 1533 1533 1534 1534 1535 1535 1535 1535 1536 1537 1537 1538 1538 1539 1540 1541 1541 1540 1540 1541 1542 1542 1543 1544 1546 1546 1546 1548 1549 1550 1551 1552 1553 1554 1555 1556 1557 1558 1558 1559 1560 1560 1561 1562 1563 1564 1564 1565 1566 1566 1567 1567 1567 1568 1568 1568 1569 1569 1569 1569 1570 1570 1570
1522 1523 1524 1525 1526 1526 1526 1527 1527 1528 1528 1528 1529 1530 1530 1531 1531 1531 1531 1531 1532 1532 1532 1533 1533 1533 1534 1534 1534 1534 1535 1536 1536 1536 1537 1538 1539 1540 1540 1540 1540 1541 1540 1541 1541 1542 1543 1544 1545 1547 1548 1549 1550 1551 1552 1552 1554 1555 1556 1557 1558 1558 1558 1559 1560 1561 1562 1563 1563 1564 1564 1565 1565 1566 1566 1567 1567 1567 1567 1568 1568 1569 1569 1569 1569
1521 1522 1523 1524 1525 1526 1526 1526 1527 1527 1528 1528 1529 1529 1530 1530 1530 1531 1531 1531 1531 1532 1532 1532 1533 1533 1533 1533 1533 1533 1534 1535 1535 1535 1535 1536 1537 1538 1538 1539 1540 1540 1539 1540 1540 1540 1542 1543 1544 1545 1546 1548 1548 1549 1550 1551 1552 1553 1554 1555 1556 1557 1557 1558 1559 1560 1561 1561 1562 1562 1563 1564 1564 1564 1565 1565 1566 1566 1566 1567 1567 1568 1568 1568 1569
1521 1522 1523 1524 1525 1525 1526 1526 1526 1527 1528 1528 1528 1529 1530 1530 1530 1530 1531 1531 1531 1532 1532 1532 1532 1532 1532 1532 1532 1532 1533 1533 1533 1533 1534 1535 1536 1536 1537 1538 1538 1538 1539 1539 1540 1540 1541 1542 1543 1543 1544 1545 1547 1548 1549 1550 1550 1552 1553 1554 1555 1555 1555 1556 1557 1558 1559 1560 1560 1561 1562 1562 1562 1563 1563 1564 1564 1565 1565 1565 1566 1566 1567 1567 1567
1520 1521 1522 1523 1524 1525 1525 1526 1526 1527 1528 1528 1528 1529 1529 1530 1530 1530 1531 1531 1532 1532 1532 1532 1532 1532 1532 1532 1532 1532 1532 1532 1532 1532 1533 1534 1535 1535 1535 1536 1537 1537 1537 1538 1539 1539 1539 1540 1541 1541 1542 1544 1545 1546 1547 1548 1549 1550 1552 1552 1553 1553 1554 1555 1556 1557 1557 1558 1559 1559 1560 1560 1561 1561 1562 1562 1563 1563 1564 1564 1564 1565 1565 1566 1566
1518 1520 1521 1522 1523 1524 1525 1525 1526 1527 1528 1528 1528 1529 1529 1530 1530 1530 1531 1531 1532 1532 1532 1532 1532 1532 1532 1532 1532 1531 1531 1531 1531 1532 1532 1533 1534 1534 1535 1535 1536 1536 1536 1536 1537 1538 1538 1539 1539 1540 1541 1542 1543 1544 1545 1546 1547 1548 1550 1550 1550 1551 1552 1553 1554 1555 1555 1556 1557 1557 1558 1558 1559 1560 1560 1560 1561 1562 1562 1562 1563 1563 1564 1564 1564
1517 1518 1520 1521 1522 1523 1524 1525 1525 1526 1527 1528 1528 1529 1529 1530 1530 1530 1531 1532 1532 1532 1532 1532 1532 1532 1532 1532 1532 1531 1531 1531 1531 1531 1532 1533 1533 1534 1534 1534 1535 1535 1535 1536 1536 1537 1538 1538 1539 1539 1540 1541 1542 1542 1543 1544 1545 1546 1548 1548 1548 1549 1550 1551 1551 1552 1553 1554 1554 1555 1556 1556 1557 1557 1557 1558 1559 1559 1560 1560 1561 1561 1562 1562 1562
1515 1516 1518 1519 1520 1522 1523 1524 1525 1526 1527 1527 1528 1529 1529 1529 1530 1531 1531 1532 1532 1532 1532 1532 1532 1532 1532 1532 1532 1532 1531 1531 1531 1531 1532 1532 1533 1533 1534 1534 1534 1535 1535 1536 1536 1536 1537 1537 1538 1539 1539 1540 1540 1541 1541 1542 1543 1544 1546 1547 1547 1547 1548 1548 1549 1549 1550 1551 1552 1553 1553 1554 1554 1555 1555 1555 1556 1557 1557 1558 1559 1559 1559 1560 1560
1512 1513 1516 1517 1519 1521 1522 1523 1524 1525 1526 1527 1527 1528 1529 1529 1530 1531 1531 1532 1532 1533 1533 1533 1533 1533 1533 1533 1533 1532 1532 1531 1531 1532 1532 1532 1533 1533 1534 1534 1534 1535 1535 1535 1536 1536 1536 1537 1537 1538 1539 1540 1540 1540 1541 1541 1542 1543 1544 1545 1546 1546 1546 1546 1547 1547 1548 1549 1549 1550 1551 1551 1552 1552 1553 1553 1553 1554 1555 1555 1556 1556 1557 1557 1557
1509 1511 1514 1516 1518 1520 1521 1521 1523 1524 1525 1526 1527 1528 1528 1529 1530 1531 1531 1532 1532 1533 1533 1533 1534 1534 1534 1534 1533 1533 1533 1532 1532 1532 1532 1533 1533 1534 1534 1534 1534 1534 1535 1535 1535 1536 1536 1536 1537 1537 1538 1539 1539 1540 1541 1541 1541 1541 1542 1544 1544 1545 1545 1545 1546 1546 1546 1547 1548 1548 1549 1549 1550 1550 1550 1551 1551 1551 1552 1552 1553 1553 1554 1554 1555
1506 1509 1512 1514 1516 1518 1519 1520 1522 1523 1524 1525 1526 1527 1528 1529 1530 1531 1532 1532 1533 1533 1533 1533 1534 1534 1534 1534 1534 1534 1534 1533 1533 1533 1533 1533 1534 1534 1534 1534 1534 1534 1534 1534 1535 1535 1536 1536 1536 1537 1537 1538 1539 1539 1540 1540 1540 1541 1542 1543 1543 1543 1544 1545 1545 1545 1545 1545 1546 1546 1547 1548 1548 1548 1548 1548 1549 1549 1549 1550 1550 1551 1551 1552 1552
1504 1507 1509 1512 1514 1516 1518 1520 1521 1522 1523 1524 1525 1526 1527 1528 1530 1530 1531 1532 1533 1533 1533 1533 1534 1534 1534 1534 1534 1534 1534 1534 1534 1534 1534 1534 1534 1534 1534 1534 1534 1534 1534 1534 1535 1535 1535 1535 1536 1536 1536 1537 1538 1538 1539 1539 1540 1540 1541 1542 1541 1542 1543 1543 1543 1543 1544 1544 1544 1544 1545 1546 1546 1546 1546 1546 1546 1547 1547 1548 1548 1548 1549 1549 1549
1502 1505 1507 1510 1512 1515 1517 1518 1520 1521 1522 1523 1524 1525 1527 1528 1529 1529 1530 1531 1532 1533 1533 1533 1533 1534 1534 1534 1534 1534 1534 1535 1534 1534 1534 1535 1535 1535 1535 1535 1535 1535 1535 1535 1535 1535 1535 1535 1535 1536 1536 1537 1537 1538 1538 1538 1539 1539 1540 1540 1540 1541 1542 1542 1542 1542 1542 1543 1543 1543 1544 1544 1545 1545 1544 1544 1544 1545 1545 1546 1546 1546 1547 1547 1547
1500 1503 1506 1509 1511 1513 1515 1517 1518 1519 1521 1522 1523 1524 1526 1527 1528 1529 1529 1530 1531 1532 1532 1533 1533 1534 1534 1534 1534 1534 1534 1535 1535 1535 1535 1535 1535 1535 1536 1536 1535 1535 1535 1535 1535 1535 1535 1535 1535 1536 1536 1536 1537 1537 1537 1538 1538 1538 1538 1539 1539 1540 1540 1540 1540 1541 1542 1542 1542 1542 1543 1543 1543 1542 1542 1542 1542 1543 1543 1543 1544 1544 1544 1545 1545
1498 1501 1504 1506 1509 1511 1513 1514 1516 1518 1519 1520 1522 1523 1524 1525 1527 1528 1529 1530 1531 1531 1532 1532 1533 1533 1533 1534 1534 1534 1534 1534 1535 1535 1535 1535 1535 1536 1536 1536 1536 1536 1535 1535 1535 1535 1535 1535 1535 1535 1535 1535 1536 1536 1536 1536 1537 1537 1537 1538 1538 1538 1539 1539 1539 1539 1540 1541 1541 1541 1541 1542 1541 1540 1540 1540 1541 1541 1541 1541 1541 1541 1542 1542 1542